Regional Weather Roundup
Issued by NWS

Home | Current Version | Previous Version | Graphics & Text | Print | Product List | Glossary Off
Versions: 1 2 3 4 5 6 7 8 9 10 11 12 13 14 15 16 17 18 19 20 21 22 23 24 25 26 27 28 29 30 31 32 33 34 35 36 37 38 39 40 41 42 43 44 45 46 47 48 49 50

000
ASUS43 KTOP 281508
RWRKS

WEATHER ROUNDUP FOR KANSAS
NATIONAL WEATHER SERVICE GOODLAND KS
900 AM CST WED JAN 28 2015

NOTE:  "FAIR" INDICATES FEW OR NO CLOUDS BELOW 12,000 FEET WITH NO
SIGNIFICANT WEATHER AND/OR OBSTRUCTIONS TO VISIBILITY.

KSZ001>006-013>018-027>032-041>047-281600-
NORTHWEST KANSAS

CITY           SKY/WX    TMP DP  RH WIND       PRES   REMARKS
GOODLAND       CLOUDY    40  31  70 W14       29.97R WCI  32
HAYS           PTSUNNY   45  28  53 NW12      29.85S
HILL CITY      PTSUNNY   43  31  62 W6        29.87R
RUSSELL        MOSUNNY   44  35  70 W13       29.83R
$$

KSZ061>065-074>080-084>089-281600-
SOUTHWEST KANSAS

CITY           SKY/WX    TMP DP  RH WIND       PRES   REMARKS
DODGE CITY     MOSUNNY   44  32  62 NW15      29.89R
ELKHART          N/A     54  28  36 NW13        N/A
GARDEN CITY    CLOUDY    41  31  67 NW13      29.91R
LIBERAL        CLOUDY    43  34  70 W13       29.95R
PRATT          MOSUNNY   48  34  57 SW12      29.87F
$$

KSZ066>073-081>083-090>101-281600-
SOUTHEAST KANSAS

CITY           SKY/WX    TMP DP  RH WIND       PRES   REMARKS
CHANUTE        SUNNY     54  38  54 S16       29.97S
COFFEYVILLE    SUNNY     55  38  52 S17       29.99F
HUTCHINSON     SUNNY     50  39  66 S7        29.87S
MEDICINE LODGE   N/A     48  36  63 S6        29.89S
NEWTON         SUNNY     52  36  54 S13       29.90S
PARSONS        SUNNY     53  38  56 S13       29.99S
WICHITA INTL   MOSUNNY   49  38  65 S15       29.89F
WICHITA JABRA  SUNNY     54  37  52 S14       29.90S
WICHITA MCCONL SUNNY     52  38  58 S15       29.91S
WINFIELD       SUNNY     58  31  35 S17       29.94S
$$

KSZ007>012-019>026-033>040-048>060-102>105-281600-
NORTHEAST KANSAS

CITY           SKY/WX    TMP DP  RH WIND       PRES   REMARKS
CONCORDIA      MOSUNNY   45  35  68 SW3       29.82R
EMPORIA        SUNNY     46  36  68 S16       29.89F
LAWRENCE       SUNNY     44  34  67 SE8       29.91F
MANHATTAN      SUNNY     36  33  89 CALM      29.83F
MARYSVILLE     SUNNY     41  32  70 S7        29.83S
OLATHE IND     SUNNY     49  35  58 S16       29.92F
OLATHE EXE     SUNNY     46  34  62 S13       29.92F
SALINA         MOSUNNY   49  37  63 SW8       29.84F
TOPEKA BILLARD SUNNY     47  36  65 S7        29.89F
TOPEKA FORBES  SUNNY     50  36  58 S10       29.88F
$$



USA.gov is the U.S. government's official web portal to all federal, state and local government web resources and services.